Location: Ahstedt
(52.2048°N, 10.1060°E)
Time: 20:50:17
(UTC+00:00)

Cosmos 1484 Rocket - Pass Details

Date: 18 January 2026
Orbit: 439 x 466 km, 97.6° (Epoch: 16 February)

Event Time Altitude Azimuth Distance (km) Brightness Sun altitude
Rises 05:03:15 0° 18° (NNE) 2,459 6.3 -20.1°
Reaches altitude 10° 05:05:20 10° 25° (NNE) 1,587 5.4 -19.8°
Maximum altitude 05:08:38 46° 100° (E) 617 3.5 -19.3°
Drops below altitude 10° 05:11:56 10° 175° (S) 1,590 5.3 -18.8°
Sets 05:14:01 0° 182° (S) 2,464 6.3 -18.5°
